Home   Weather   Palma   Past weeks
Flag for Spain

Past Weather in Palma, Majorca, Spain — Yesterday and Last 2 Weeks

Now
50 °F

Scattered showers. Scattered clouds.


Feels Like: 45 °F
Forecast: 52 / 39 °F
Wind: 13 mph from Northeast

Location: Palma De Mallorca / Son San Juan

Current Time: Jan 21, 2019 at 11:24:07 am

Latest Report: Jan 21, 2019 at 11:00 am


Visibility: N/A

Pressure: 30.01 "Hg

Humidity: 82%

Dew Point: 45 °F

Location of PalmaLocation

Past Weather in Palma — Graph

°F

Palma Temperature Yesterday

Maximum temperature yesterday: 57 °F (at 2:30 pm)
Minimum temperature yesterday: 37 °F (at 12:00 am)
Average temperature yesterday: 49 °F

High & Low Weather Summary for the Past Weeks

 TemperatureHumidityPressure
High66 °F (Jan 6, 3:00 pm)100% (Jan 6, 10:00 am)30.42 "Hg (Jan 6, 10:00 am)
Low28 °F (Jan 12, 1:30 am)30% (Jan 6, 3:00 pm)29.71 "Hg (Jan 20, 2:00 pm)
Average48 °F82%30.11 "Hg
* Reported Jan 6 10:00 am — Jan 21 10:30 am, Palma. Weather by CustomWeather, © 2019

Note: Actual official high and low records may vary slightly from our data, if they occured in-between our weather recording intervals... More about our weather records

Advertising

Palma Weather History for the Previous 24 Hours

Scroll right to see more
 ConditionsComfort  
Time TempWeatherWind HumidityBarometerVisibility
10:30 am
Mon, Jan 21
52 °FSprinkles. Scattered clouds.14 mph72%30.01 "HgN/A
10:00 am50 °FScattered clouds.1 mph100%29.98 "HgN/A
9:30 am46 °FScattered clouds.1 mph100%29.98 "HgN/A
9:00 am43 °FScattered clouds.3 mph100%29.98 "HgN/A
8:30 am43 °FScattered clouds.2 mph100%29.95 "HgN/A
7:30 am45 °FPassing clouds.1 mph100%29.95 "HgN/A
7:00 am46 °FLight rain. Passing clouds.3 mph100%29.95 "HgN/A
6:30 am46 °FLight rain. Passing clouds.3 mph100%29.92 "HgN/A
6:00 am46 °FLight rain. Passing clouds.3 mph100%29.92 "HgN/A
5:30 am46 °FLight rain. Passing clouds.3 mph100%29.92 "HgN/A
5:00 am48 °FPassing clouds.3 mph100%29.89 "HgN/A
4:30 am48 °FPassing clouds.3 mph100%29.89 "HgN/A
4:00 am48 °FPassing clouds.7 mph100%29.89 "HgN/A
3:30 am50 °FPassing clouds.7 mph94%29.89 "HgN/A
3:00 am50 °FPassing clouds.12 mph94%29.89 "HgN/A
2:00 am50 °FPassing clouds.10 mph88%29.86 "HgN/A
1:30 am50 °FPassing clouds.12 mph88%29.86 "HgN/A
1:00 am50 °FPassing clouds.13 mph88%29.86 "HgN/A
12:30 am50 °FPassing clouds.12 mph88%29.83 "HgN/A
12:00 am50 °FPassing clouds.10 mph82%29.83 "HgN/A
11:30 pm
Sun, Jan 20
52 °FPassing clouds.14 mph77%29.83 "HgN/A
11:00 pm50 °FPassing clouds.13 mph88%29.83 "HgN/A
10:30 pm50 °FPassing clouds.10 mph82%29.80 "HgN/A
10:00 pm50 °FPassing clouds.9 mph82%29.80 "HgN/A
9:30 pm50 °FLight rain. Passing clouds.12 mph88%29.80 "HgN/A
9:00 pm50 °FLight rain. Passing clouds.13 mph94%29.80 "HgN/A
8:30 pm52 °FPassing clouds.12 mph82%29.77 "HgN/A
8:00 pm52 °FPassing clouds.9 mph100%29.77 "HgN/A
7:30 pm52 °FPassing clouds.13 mph100%29.74 "HgN/A
7:00 pm52 °FPassing clouds.6 mph94%29.74 "HgN/A
6:30 pm52 °FPassing clouds.6 mph94%29.71 "HgN/A
6:00 pm52 °FPassing clouds.10 mph94%29.71 "HgN/A
5:30 pm54 °FScattered clouds.12 mph88%29.71 "HgN/A
5:00 pm54 °FScattered clouds.7 mph88%29.71 "HgN/A
4:30 pm55 °FScattered clouds.10 mph82%29.71 "HgN/A
4:00 pm55 °FScattered clouds.13 mph82%29.71 "HgN/A
3:30 pm57 °FScattered clouds.10 mph72%29.71 "HgN/A
3:00 pm57 °FScattered clouds.12 mph77%29.71 "HgN/A
2:30 pm57 °FScattered clouds.12 mph77%29.71 "HgN/A
2:00 pm55 °FBroken clouds.5 mph77%29.71 "HgN/A
1:30 pm55 °FBroken clouds.3 mph100%29.74 "HgN/A
1:00 pm54 °FBroken clouds.2 mph100%29.74 "HgN/A
12:30 pm52 °FBroken clouds.1 mph100%29.74 "HgN/A
12:00 pm52 °FDrizzle. Broken clouds.5 mph100%29.77 "Hg4 mi
11:30 am52 °FDrizzle. Broken clouds.1 mph100%29.77 "Hg6 mi
11:00 am52 °FLight rain. Broken clouds.1 mph100%29.77 "Hg6 mi
Weather by CustomWeather, © 2019

See weather overview